Weather History for Marshfield, MA

Change the Weather History Date:

Wednesday, February 29, 2012

  Actual Average (KPYM) Record (KPYM)
Temperature  
Mean Temperature 34 °F -  
Max Temperature 37 °F - 65 °F (1976)
Min Temperature 30 °F - 9 °F (1980)
Degree Days  
Heating Degree Days 32    
Moisture  
Dew Point 27 °F    
Average Humidity 77    
Maximum Humidity 100    
Minimum Humidity 60    
Precipitation  
Precipitation 0.07 in - - ()
Sea Level Pressure  
Sea Level Pressure 30.28 in    
Wind  
Wind Speed 3 mph (ENE)    
Max Wind Speed 14 mph    
Max Gust Speed 20 mph    
Visibility 8 miles    
Events Rain , Snow    
Averages and records for this station are not official NWS values.
T = Trace of Precipitation, MM = Missing Value Source: NWS Daily Summary

Daily Weather History Graph

Daily Weather History Graph

Search for Another Location

Airport:

Trip Planner

Search our weather history database for the weather conditions in past years. The results will help you decide how hot, cold, wet, or windy it might be!

Date:

Astronomy

Feb. 29, 2012 Rise Set
Actual Time 6:18 AM EST 5:32 PM EST
Civil Twilight 5:50 AM EST 6:00 PM EST
Nautical Twilight 5:18 AM EST 6:32 PM EST
Astronomical Twilight 4:45 AM EST 7:05 PM EST
Moon 9:58 AM EST (2/29) 12:24 AM EST (2/29)
Length of Visible Light 12h 09m
Length of Day
11h 13m
Waxing Crescent, 47% of the Moon is Illuminated
Feb 29
Waxing Crescent
Feb 29
First Quarter
Mar 8
Full
Mar 14
Last Quarter
Mar 22
New

Hourly Weather History & Observations

Time (EST) Temp. Windchill Dew Point Humidity Pressure Visibility Wind Dir Wind Speed Gust Speed Precip Events Conditions
12:15 AM 32.0 °F - 19.4 °F 60% 30.40 in 10.0 mi Calm Calm - N/A   Clear
12:35 AM 32.0 °F - 19.4 °F 60% 30.39 in 10.0 mi Calm Calm - N/A   Partly Cloudy
12:55 AM 32.0 °F 28.7 °F 21.2 °F 64% 30.40 in 10.0 mi WSW 3.5 mph - N/A   Scattered Clouds
1:15 AM 32.0 °F 28.7 °F 21.2 °F 64% 30.40 in 10.0 mi WSW 3.5 mph - N/A   Partly Cloudy
1:35 AM 32.0 °F - 21.2 °F 64% 30.40 in 10.0 mi Calm Calm - N/A   Partly Cloudy
1:55 AM 32.0 °F 28.7 °F 21.2 °F 64% 30.40 in 10.0 mi West 3.5 mph - N/A   Scattered Clouds
2:15 AM 32.0 °F 28.7 °F 21.2 °F 64% 30.39 in 10.0 mi West 3.5 mph - N/A   Mostly Cloudy
2:35 AM 32.0 °F 28.7 °F 21.2 °F 64% 30.39 in 10.0 mi West 3.5 mph - N/A   Partly Cloudy
2:55 AM 32.0 °F - 21.2 °F 64% 30.38 in 10.0 mi Calm Calm - N/A   Clear
3:15 AM 32.0 °F - 21.2 °F 64% 30.38 in 10.0 mi Calm Calm - N/A   Clear
3:35 AM 32.0 °F - 21.2 °F 64% 30.37 in 10.0 mi Calm Calm - N/A   Clear
3:55 AM 30.2 °F 26.7 °F 21.2 °F 69% 30.37 in 10.0 mi West 3.5 mph - N/A   Clear
4:15 AM 30.2 °F 26.7 °F 21.2 °F 69% 30.37 in 10.0 mi WSW 3.5 mph - N/A   Clear
4:35 AM 30.2 °F - 21.2 °F 69% 30.37 in 10.0 mi Calm Calm - N/A   Clear
4:55 AM 30.2 °F - 21.2 °F 69% 30.37 in 10.0 mi Calm Calm - N/A   Clear
5:15 AM 30.2 °F - 21.2 °F 69% 30.37 in 10.0 mi Calm Calm - N/A   Clear
5:35 AM 30.2 °F - 21.2 °F 69% 30.38 in 10.0 mi Calm Calm - N/A   Clear
5:55 AM 30.2 °F - 21.2 °F 69% 30.36 in 10.0 mi Calm Calm - N/A   Scattered Clouds
6:15 AM 30.2 °F - 21.2 °F 69% 30.36 in 10.0 mi Calm Calm - N/A   Mostly Cloudy
6:35 AM 30.2 °F - 21.2 °F 69% 30.35 in 10.0 mi Calm Calm - N/A   Partly Cloudy
7:15 AM 32.0 °F - 23.0 °F 69% 30.37 in 10.0 mi Calm Calm - N/A   Mostly Cloudy
7:35 AM 32.0 °F - 23.0 °F 69% 30.36 in 10.0 mi Calm Calm - N/A   Overcast
7:55 AM 33.8 °F - 23.0 °F 65% 30.36 in 10.0 mi Calm Calm - N/A   Overcast
8:15 AM 35.6 °F - 24.8 °F 65% 30.35 in 10.0 mi Calm Calm - N/A   Overcast
8:35 AM 35.6 °F - 24.8 °F 65% 30.35 in 10.0 mi Calm Calm - N/A   Overcast
8:55 AM 37.4 °F - 24.8 °F 60% 30.34 in 10.0 mi Calm Calm - N/A   Mostly Cloudy
9:15 AM 37.4 °F - 26.6 °F 65% 30.35 in 10.0 mi Calm Calm - N/A   Mostly Cloudy
9:35 AM 37.4 °F 34.9 °F 26.6 °F 65% 30.35 in 10.0 mi NE 3.5 mph - N/A   Mostly Cloudy
9:55 AM 37.4 °F - 24.8 °F 60% 30.34 in 10.0 mi Calm Calm - N/A   Mostly Cloudy
10:15 AM 37.4 °F 32.8 °F 26.6 °F 65% 30.34 in 10.0 mi NE 5.8 mph - N/A   Scattered Clouds
10:35 AM 37.4 °F 32.8 °F 26.6 °F 65% 30.34 in 10.0 mi NE 5.8 mph - N/A   Partly Cloudy
10:55 AM 37.4 °F 33.8 °F 24.8 °F 60% 30.33 in 10.0 mi NE 4.6 mph - N/A   Partly Cloudy
11:15 AM 37.4 °F 33.8 °F 26.6 °F 65% 30.32 in 10.0 mi NE 4.6 mph - N/A   Clear
11:35 AM 37.4 °F 33.8 °F 26.6 °F 65% 30.31 in 10.0 mi NE 4.6 mph - N/A   Clear
11:55 AM 37.4 °F 33.8 °F 26.6 °F 65% 30.30 in 10.0 mi NE 4.6 mph - N/A   Clear
12:15 PM 37.4 °F 32.8 °F 26.6 °F 65% 30.29 in 10.0 mi NE 5.8 mph - N/A   Partly Cloudy
12:35 PM 37.4 °F 33.8 °F 26.6 °F 65% 30.29 in 10.0 mi NNE 4.6 mph - N/A Rain Light Rain
12:55 PM 35.6 °F 32.8 °F 26.6 °F 70% 30.29 in 4.0 mi SSE 3.5 mph - N/A Snow Light Snow
1:15 PM 33.8 °F - 30.2 °F 87% 30.29 in 1.2 mi Calm Calm - N/A Snow Light Snow
1:35 PM 33.8 °F 28.6 °F 32.0 °F 93% 30.27 in 0.8 mi East 5.8 mph - N/A Snow Light Snow
1:55 PM 33.8 °F 29.6 °F 32.0 °F 93% 30.26 in 1.0 mi East 4.6 mph - 0.01 in Snow Light Snow
2:15 PM 33.8 °F 30.8 °F 32.0 °F 93% 30.26 in 1.0 mi East 3.5 mph - N/A Snow Light Snow
2:35 PM 33.8 °F 29.6 °F 32.0 °F 93% 30.24 in 0.5 mi East 4.6 mph - 0.01 in Snow Light Snow
2:55 PM 33.8 °F 29.6 °F 32.0 °F 93% 30.22 in 1.0 mi ENE 4.6 mph - 0.01 in Snow Light Snow
3:15 PM 33.8 °F 27.7 °F 32.0 °F 93% 30.22 in 3.0 mi ENE 6.9 mph - N/A   Overcast
3:35 PM 33.8 °F 28.6 °F 32.0 °F 93% 30.20 in 7.0 mi East 5.8 mph - 0.01 in Snow Light Snow
3:55 PM 33.8 °F 28.6 °F 32.0 °F 93% 30.19 in 1.8 mi ENE 5.8 mph - 0.01 in Snow Light Snow
4:15 PM 33.8 °F 27.0 °F 32.0 °F 93% 30.18 in 2.0 mi ENE 8.1 mph - N/A Snow Light Snow
4:35 PM 33.8 °F 27.7 °F 32.0 °F 93% 30.17 in 1.5 mi East 6.9 mph - N/A Snow Light Snow
4:55 PM 33.8 °F 27.0 °F 32.0 °F 93% 30.17 in 1.2 mi East 8.1 mph - 0.01 in Snow Light Snow
5:15 PM 33.8 °F 25.8 °F 33.8 °F 100% 30.15 in 2.5 mi East 10.4 mph - N/A Snow Light Snow
5:35 PM 33.8 °F 25.8 °F 33.8 °F 100% 30.14 in 5.0 mi East 10.4 mph - N/A Snow Light Snow
5:55 PM 33.8 °F 24.3 °F 33.8 °F 100% 30.12 in 9.0 mi East 13.8 mph - 0.01 in Rain Light Rain
6:15 PM 35.6 °F 28.6 °F 33.8 °F 93% 30.11 in 6.0 mi East 9.2 mph - N/A Snow Light Snow
6:35 PM 35.6 °F 28.6 °F 33.8 °F 93% 30.10 in 6.0 mi East 9.2 mph - N/A Snow Light Snow
6:55 PM 35.6 °F 28.0 °F 33.8 °F 93% 30.10 in 7.0 mi East 10.4 mph 16.1 mph 0.01 in Snow Light Snow
7:15 PM 35.6 °F 27.5 °F 33.8 °F 93% 30.08 in 7.0 mi East 11.5 mph 17.3 mph N/A   Overcast
7:35 PM 35.6 °F 27.5 °F 33.8 °F 93% 30.08 in 7.0 mi East 11.5 mph - N/A Rain Light Rain
7:55 PM 35.6 °F 28.6 °F 33.8 °F 93% 30.07 in 5.0 mi East 9.2 mph - 0.01 in Rain Light Rain
8:15 PM 35.6 °F 28.6 °F 33.8 °F 93% 30.08 in 6.0 mi East 9.2 mph - N/A Rain Light Rain
8:35 PM 35.6 °F 28.6 °F 35.6 °F 100% 30.08 in 7.0 mi East 9.2 mph - N/A Rain Light Rain
9:15 PM 35.6 °F 28.0 °F 35.6 °F 100% 30.02 in 7.0 mi ENE 10.4 mph 18.4 mph N/A Rain Light Rain
9:35 PM 37.4 °F 29.8 °F 35.6 °F 93% 30.02 in 10.0 mi ENE 11.5 mph 19.6 mph N/A Rain Light Rain
9:55 PM 37.4 °F 29.3 °F 35.6 °F 93% 30.01 in 7.0 mi ENE 12.7 mph 20.7 mph N/A Rain Light Rain
10:15 PM 37.4 °F 28.5 °F 35.6 °F 93% 29.99 in 4.0 mi ENE 15.0 mph 21.9 mph N/A   Light Drizzle
10:35 PM 37.4 °F 28.2 °F 35.6 °F 93% 29.98 in 3.0 mi ENE 16.1 mph 21.9 mph 0.01 in   Light Drizzle
11:15 PM 37.4 °F 28.9 °F 35.6 °F 93% 29.97 in 1.8 mi ENE 13.8 mph 26.5 mph N/A   Overcast
11:35 PM 37.4 °F 27.2 °F 35.6 °F 93% 29.94 in 4.0 mi East 19.6 mph 27.6 mph N/A   Overcast
11:55 PM 37.4 °F 28.2 °F 35.6 °F 93% 29.93 in 6.0 mi ENE 16.1 mph 24.2 mph 0.01 in Rain Light Rain